Year,Month,Day,Hour,Minute,Value (Times are PST for temperature in C)
2008,08,17,00,00,21.30
2008,08,17,00,01,21.30
2008,08,17,00,02,21.30
2008,08,17,00,03,21.30
2008,08,17,00,04,21.30
2008,08,17,00,05,21.30
2008,08,17,00,06,21.30
2008,08,17,00,07,21.30
2008,08,17,00,08,21.30
2008,08,17,00,09,21.30
2008,08,17,00,10,21.30
2008,08,17,00,11,21.30
2008,08,17,00,12,21.30
2008,08,17,00,13,21.40
2008,08,17,00,14,21.50
2008,08,17,00,15,21.60
2008,08,17,00,16,21.60
2008,08,17,00,17,21.60
2008,08,17,00,18,21.60
2008,08,17,00,19,21.70
2008,08,17,00,20,21.70
2008,08,17,00,21,21.70
2008,08,17,00,22,21.60
2008,08,17,00,23,21.60
2008,08,17,00,24,21.60
2008,08,17,00,25,21.50
2008,08,17,00,26,21.30
2008,08,17,00,27,21.30
2008,08,17,00,28,21.20
2008,08,17,00,29,21.00
2008,08,17,00,30,21.00
2008,08,17,00,31,20.90
2008,08,17,00,32,20.80
2008,08,17,00,33,20.70
2008,08,17,00,34,20.40
2008,08,17,00,35,20.10
2008,08,17,00,36,19.80
2008,08,17,00,37,19.50
2008,08,17,00,38,19.30
2008,08,17,00,39,19.00
2008,08,17,00,40,18.80
2008,08,17,00,41,18.60
2008,08,17,00,42,18.40
2008,08,17,00,43,18.20
2008,08,17,00,44,18.00
2008,08,17,00,45,17.90
2008,08,17,00,46,17.70
2008,08,17,00,47,17.60
2008,08,17,00,48,17.40
2008,08,17,00,49,17.30
2008,08,17,00,50,17.30
2008,08,17,00,51,17.20
2008,08,17,00,52,17.10
2008,08,17,00,53,17.10
2008,08,17,00,54,17.10
2008,08,17,00,55,17.20
2008,08,17,00,56,17.20
2008,08,17,00,57,17.20
2008,08,17,00,58,17.20
2008,08,17,00,59,17.20
2008,08,17,01,00,17.20
2008,08,17,01,01,17.30
2008,08,17,01,02,17.30
2008,08,17,01,03,17.40
2008,08,17,01,04,17.50
2008,08,17,01,05,17.70
2008,08,17,01,06,17.80
2008,08,17,01,07,17.90
2008,08,17,01,08,17.90
2008,08,17,01,09,17.90
2008,08,17,01,10,18.00
2008,08,17,01,11,18.10
2008,08,17,01,12,18.10
2008,08,17,01,13,18.20
2008,08,17,01,14,18.10
2008,08,17,01,15,18.10
2008,08,17,01,16,18.10
2008,08,17,01,17,18.20
2008,08,17,01,18,18.20
2008,08,17,01,19,18.40
2008,08,17,01,20,18.50
2008,08,17,01,21,18.60
2008,08,17,01,22,18.70
2008,08,17,01,23,18.90
2008,08,17,01,24,18.90
2008,08,17,01,25,19.00
2008,08,17,01,26,19.10
2008,08,17,01,27,19.10
2008,08,17,01,28,19.10
2008,08,17,01,29,19.20
2008,08,17,01,30,19.30
2008,08,17,01,31,19.40
2008,08,17,01,32,19.40
2008,08,17,01,33,19.50
2008,08,17,01,34,19.50
2008,08,17,01,35,19.50
2008,08,17,01,36,19.50
2008,08,17,01,37,19.50
2008,08,17,01,38,19.50
2008,08,17,01,39,19.60
2008,08,17,01,40,19.60
2008,08,17,01,41,19.60
2008,08,17,01,42,19.60
2008,08,17,01,43,19.60
2008,08,17,01,44,19.60
2008,08,17,01,45,19.60
2008,08,17,01,46,19.50
2008,08,17,01,47,19.50
2008,08,17,01,48,19.50
2008,08,17,01,49,19.40
2008,08,17,01,50,19.40
2008,08,17,01,51,19.40
2008,08,17,01,52,19.40
2008,08,17,01,53,19.40
2008,08,17,01,54,19.50
2008,08,17,01,55,19.50
2008,08,17,01,56,19.50
2008,08,17,01,57,19.50
2008,08,17,01,58,19.50
2008,08,17,01,59,19.50
2008,08,17,02,00,19.60
2008,08,17,02,01,19.70
2008,08,17,02,02,19.70
2008,08,17,02,03,19.80
2008,08,17,02,04,19.80
2008,08,17,02,05,19.90
2008,08,17,02,06,19.90
2008,08,17,02,07,19.90
2008,08,17,02,08,19.90
2008,08,17,02,09,19.90
2008,08,17,02,10,19.90
2008,08,17,02,11,19.90
2008,08,17,02,12,19.90
2008,08,17,02,13,19.90
2008,08,17,02,14,19.90
2008,08,17,02,15,19.90
2008,08,17,02,16,19.90
2008,08,17,02,17,19.90
2008,08,17,02,18,19.90
2008,08,17,02,19,19.90
2008,08,17,02,20,19.90
2008,08,17,02,21,20.10
2008,08,17,02,22,20.10
2008,08,17,02,23,20.10
2008,08,17,02,24,20.10
2008,08,17,02,25,20.00
2008,08,17,02,26,19.90
2008,08,17,02,27,19.90
2008,08,17,02,28,19.70
2008,08,17,02,29,19.60
2008,08,17,02,30,19.50
2008,08,17,02,31,19.40
2008,08,17,02,32,19.30
2008,08,17,02,33,19.20
2008,08,17,02,34,19.10
2008,08,17,02,35,19.10
2008,08,17,02,36,19.10
2008,08,17,02,37,19.10
2008,08,17,02,38,19.10
2008,08,17,02,39,19.10
2008,08,17,02,40,19.10
2008,08,17,02,41,19.10
2008,08,17,02,42,19.10
2008,08,17,02,43,19.10
2008,08,17,02,44,19.10
2008,08,17,02,45,19.10
2008,08,17,02,46,19.10
2008,08,17,02,47,19.10
2008,08,17,02,48,19.10
2008,08,17,02,49,19.00
2008,08,17,02,50,18.90
2008,08,17,02,51,18.90
2008,08,17,02,52,19.00
2008,08,17,02,53,19.10
2008,08,17,02,54,19.10
2008,08,17,02,55,19.20
2008,08,17,02,56,19.30
2008,08,17,02,57,19.30
2008,08,17,02,58,19.40
2008,08,17,02,59,19.40
2008,08,17,03,00,19.50
2008,08,17,03,01,19.60
2008,08,17,03,02,19.60
2008,08,17,03,03,19.70
2008,08,17,03,04,19.70
2008,08,17,03,05,19.60
2008,08,17,03,06,19.60
2008,08,17,03,07,19.40
2008,08,17,03,08,19.30
2008,08,17,03,09,19.10
2008,08,17,03,10,19.00
2008,08,17,03,11,18.90
2008,08,17,03,12,18.80
2008,08,17,03,13,18.70
2008,08,17,03,14,18.60
2008,08,17,03,15,18.50
2008,08,17,03,16,18.40
2008,08,17,03,17,18.20
2008,08,17,03,18,18.10
2008,08,17,03,19,18.00
2008,08,17,03,20,17.90
2008,08,17,03,21,17.80
2008,08,17,03,22,17.70
2008,08,17,03,23,17.70
2008,08,17,03,24,17.60
2008,08,17,03,25,17.50
2008,08,17,03,26,17.50
2008,08,17,03,27,17.40
2008,08,17,03,28,17.40
2008,08,17,03,29,17.30
2008,08,17,03,30,17.40
2008,08,17,03,31,17.40
2008,08,17,03,32,17.40
2008,08,17,03,33,17.50
2008,08,17,03,34,17.60
2008,08,17,03,35,17.60
2008,08,17,03,36,17.60
2008,08,17,03,37,17.60
2008,08,17,03,38,17.50
2008,08,17,03,39,17.40
2008,08,17,03,40,17.30
2008,08,17,03,41,17.30
2008,08,17,03,42,17.20
2008,08,17,03,43,17.20
2008,08,17,03,44,17.10
2008,08,17,03,45,17.00
2008,08,17,03,46,17.00
2008,08,17,03,47,16.90
2008,08,17,03,48,16.90
2008,08,17,03,49,16.90
2008,08,17,03,50,16.90
2008,08,17,03,51,16.80
2008,08,17,03,52,16.80
2008,08,17,03,53,16.70
2008,08,17,03,54,16.70
2008,08,17,03,55,16.70
2008,08,17,03,56,16.70
2008,08,17,03,57,16.70
2008,08,17,03,58,16.70
2008,08,17,03,59,16.70
2008,08,17,04,00,16.70
2008,08,17,04,01,16.70
2008,08,17,04,02,16.70
2008,08,17,04,03,16.60
2008,08,17,04,04,16.60
2008,08,17,04,05,16.60
2008,08,17,04,06,16.60
2008,08,17,04,07,16.50
2008,08,17,04,08,16.40
2008,08,17,04,09,16.40
2008,08,17,04,10,16.40
2008,08,17,04,11,16.40
2008,08,17,04,12,16.40
2008,08,17,04,13,16.40
2008,08,17,04,14,16.40
2008,08,17,04,15,16.40
2008,08,17,04,16,16.40
2008,08,17,04,17,16.50
2008,08,17,04,18,16.60
2008,08,17,04,19,16.50
2008,08,17,04,20,16.40
2008,08,17,04,21,16.40
2008,08,17,04,22,16.40
2008,08,17,04,23,16.40
2008,08,17,04,24,16.40
2008,08,17,04,25,16.40
2008,08,17,04,26,16.40
2008,08,17,04,27,16.40
2008,08,17,04,28,16.40
2008,08,17,04,29,16.40
2008,08,17,04,30,16.40
2008,08,17,04,31,16.30
2008,08,17,04,32,16.30
2008,08,17,04,33,16.30
2008,08,17,04,34,16.30
2008,08,17,04,35,16.30
2008,08,17,04,36,16.30
2008,08,17,04,37,16.30
2008,08,17,04,38,16.30
2008,08,17,04,39,16.30
2008,08,17,04,40,16.30
2008,08,17,04,41,16.30
2008,08,17,04,42,16.30
2008,08,17,04,43,16.30
2008,08,17,04,44,16.30
2008,08,17,04,45,16.30
2008,08,17,04,46,16.30
2008,08,17,04,47,16.40
2008,08,17,04,48,16.40
2008,08,17,04,49,16.40
2008,08,17,04,50,16.40
2008,08,17,04,51,16.40
2008,08,17,04,52,16.40
2008,08,17,04,53,16.40
2008,08,17,04,54,16.40
2008,08,17,04,55,16.40
2008,08,17,04,56,16.30
2008,08,17,04,57,16.30
2008,08,17,04,58,16.30
2008,08,17,04,59,16.30
2008,08,17,05,00,16.30
2008,08,17,05,01,16.20
2008,08,17,05,02,16.10
2008,08,17,05,03,16.10
2008,08,17,05,04,16.10
2008,08,17,05,05,16.10
2008,08,17,05,06,16.00
2008,08,17,05,07,15.90
2008,08,17,05,08,15.90
2008,08,17,05,09,15.80
2008,08,17,05,10,15.80
2008,08,17,05,11,15.70
2008,08,17,05,12,15.60
2008,08,17,05,13,15.60
2008,08,17,05,14,15.50
2008,08,17,05,15,15.40
2008,08,17,05,16,15.40
2008,08,17,05,17,15.30
2008,08,17,05,18,15.30
2008,08,17,05,19,15.30
2008,08,17,05,20,15.30
2008,08,17,05,21,15.30
2008,08,17,05,22,15.30
2008,08,17,05,23,15.30
2008,08,17,05,24,15.30
2008,08,17,05,25,15.30
2008,08,17,05,26,15.30
2008,08,17,05,27,15.30
2008,08,17,05,28,15.30
2008,08,17,05,29,15.30
2008,08,17,05,30,15.30
2008,08,17,05,31,15.30
2008,08,17,05,32,15.40
2008,08,17,05,33,15.40
2008,08,17,05,34,15.50
2008,08,17,05,35,15.60
2008,08,17,05,36,15.70
2008,08,17,05,37,15.80
2008,08,17,05,38,15.90
2008,08,17,05,39,16.10
2008,08,17,05,40,16.10
2008,08,17,05,41,16.10
2008,08,17,05,42,16.10
2008,08,17,05,43,16.20
2008,08,17,05,44,16.20
2008,08,17,05,45,16.20
2008,08,17,05,46,16.30
2008,08,17,05,47,16.30
2008,08,17,05,48,16.40
2008,08,17,05,49,16.50
2008,08,17,05,50,16.60
2008,08,17,05,51,16.60
2008,08,17,05,52,16.70
2008,08,17,05,53,16.70
2008,08,17,05,54,16.70
2008,08,17,05,55,16.70
2008,08,17,05,56,16.60
2008,08,17,05,57,16.30
2008,08,17,05,58,16.00
2008,08,17,05,59,15.70
2008,08,17,06,00,15.30
2008,08,17,06,01,14.90
2008,08,17,06,02,14.60
2008,08,17,06,03,14.30
2008,08,17,06,04,14.10
2008,08,17,06,05,13.90
2008,08,17,06,06,13.80
2008,08,17,06,07,13.70
2008,08,17,06,08,13.60
2008,08,17,06,09,13.60
2008,08,17,06,10,13.50
2008,08,17,06,11,13.50
2008,08,17,06,12,13.50
2008,08,17,06,13,13.50
2008,08,17,06,14,13.40
2008,08,17,06,15,13.40
2008,08,17,06,16,13.40
2008,08,17,06,17,13.30
2008,08,17,06,18,13.30
2008,08,17,06,19,13.20
2008,08,17,06,20,13.10
2008,08,17,06,21,13.00
2008,08,17,06,22,13.00
2008,08,17,06,23,12.90
2008,08,17,06,24,12.80
2008,08,17,06,25,12.80
2008,08,17,06,26,12.70
2008,08,17,06,27,12.60
2008,08,17,06,28,12.60
2008,08,17,06,29,12.50
2008,08,17,06,30,12.50
2008,08,17,06,31,12.40
2008,08,17,06,32,12.40
2008,08,17,06,33,12.40
2008,08,17,06,34,12.30
2008,08,17,06,35,12.30
2008,08,17,06,36,12.30
2008,08,17,06,37,12.30
2008,08,17,06,38,12.30
2008,08,17,06,39,12.40
2008,08,17,06,40,12.40
2008,08,17,06,41,12.40
2008,08,17,06,42,12.40
2008,08,17,06,43,12.40
2008,08,17,06,44,12.50
2008,08,17,06,45,12.50
2008,08,17,06,46,12.50
2008,08,17,06,47,12.50
2008,08,17,06,48,12.50
2008,08,17,06,49,12.40
2008,08,17,06,50,12.40
2008,08,17,06,51,12.40
2008,08,17,06,52,12.30
2008,08,17,06,53,12.30
2008,08,17,06,54,12.30
2008,08,17,06,55,12.30
2008,08,17,06,56,12.20
2008,08,17,06,57,12.30
2008,08,17,06,58,12.30
2008,08,17,06,59,12.30
2008,08,17,07,00,12.30
2008,08,17,07,01,12.30
2008,08,17,07,02,12.30
2008,08,17,07,03,12.30
2008,08,17,07,04,12.40
2008,08,17,07,05,12.40
2008,08,17,07,06,12.50
2008,08,17,07,07,12.50
2008,08,17,07,08,12.60
2008,08,17,07,09,12.60
2008,08,17,07,10,12.60
2008,08,17,07,11,12.60
2008,08,17,07,12,12.60
2008,08,17,07,13,12.70
2008,08,17,07,14,12.70
2008,08,17,07,15,12.80
2008,08,17,07,16,12.70
2008,08,17,07,17,12.80
2008,08,17,07,18,12.80
2008,08,17,07,19,12.80
2008,08,17,07,20,12.80
2008,08,17,07,21,12.90
2008,08,17,07,22,13.10
2008,08,17,07,23,13.10
2008,08,17,07,24,13.20
2008,08,17,07,25,13.30
2008,08,17,07,26,13.30
2008,08,17,07,27,13.30
2008,08,17,07,28,13.30
2008,08,17,07,29,13.40
2008,08,17,07,30,13.40
2008,08,17,07,31,13.50
2008,08,17,07,32,13.60
2008,08,17,07,33,13.70
2008,08,17,07,34,13.80
2008,08,17,07,35,13.90
2008,08,17,07,36,13.90
2008,08,17,07,37,14.00
2008,08,17,07,38,13.90
2008,08,17,07,39,13.90
2008,08,17,07,40,13.80
2008,08,17,07,41,13.70
2008,08,17,07,42,13.70
2008,08,17,07,43,13.60
2008,08,17,07,44,13.50
2008,08,17,07,45,13.50
2008,08,17,07,46,13.40
2008,08,17,07,47,13.30
2008,08,17,07,48,13.30
2008,08,17,07,49,13.30
2008,08,17,07,50,13.40
2008,08,17,07,51,13.40
2008,08,17,07,52,13.50
2008,08,17,07,53,13.50
2008,08,17,07,54,13.60
2008,08,17,07,55,13.60
2008,08,17,07,56,13.60
2008,08,17,07,57,13.60
2008,08,17,07,58,13.60
2008,08,17,07,59,13.70
2008,08,17,08,00,13.80
2008,08,17,08,01,13.80
2008,08,17,08,02,13.90
2008,08,17,08,03,13.90
2008,08,17,08,04,13.90
2008,08,17,08,05,13.90
2008,08,17,08,06,13.90
2008,08,17,08,07,13.90
2008,08,17,08,08,13.90
2008,08,17,08,09,14.00
2008,08,17,08,10,14.00
2008,08,17,08,11,14.20
2008,08,17,08,12,14.30
2008,08,17,08,13,14.40
2008,08,17,08,14,14.50
2008,08,17,08,15,14.60
2008,08,17,08,16,14.60
2008,08,17,08,17,14.70
2008,08,17,08,18,14.80
2008,08,17,08,19,14.90
2008,08,17,08,20,15.00
2008,08,17,08,21,15.10
2008,08,17,08,22,15.20
2008,08,17,08,23,15.40
2008,08,17,08,24,15.50
2008,08,17,08,25,15.70
2008,08,17,08,26,15.90
2008,08,17,08,27,16.10
2008,08,17,08,28,16.30
2008,08,17,08,29,16.50
2008,08,17,08,30,16.70
2008,08,17,08,31,16.90
2008,08,17,08,32,17.10
2008,08,17,08,33,17.30
2008,08,17,08,34,17.40
2008,08,17,08,35,17.50
2008,08,17,08,36,17.60
2008,08,17,08,37,17.70
2008,08,17,08,38,17.80
2008,08,17,08,39,17.80
2008,08,17,08,40,17.80
2008,08,17,08,41,17.90
2008,08,17,08,42,18.00
2008,08,17,08,43,18.10
2008,08,17,08,44,18.20
2008,08,17,08,45,18.30
2008,08,17,08,46,18.40
2008,08,17,08,47,18.50
2008,08,17,08,48,18.60
2008,08,17,08,49,18.70
2008,08,17,08,50,18.80
2008,08,17,08,51,18.90
2008,08,17,08,52,19.00
2008,08,17,08,53,19.10
2008,08,17,08,54,19.10
2008,08,17,08,55,19.10
2008,08,17,08,56,19.20
2008,08,17,08,57,19.20
2008,08,17,08,58,19.20
2008,08,17,08,59,19.10
2008,08,17,09,00,19.10
2008,08,17,09,01,19.10
2008,08,17,09,02,19.10
2008,08,17,09,03,19.10
2008,08,17,09,04,19.10
2008,08,17,09,05,19.10
2008,08,17,09,06,19.00
2008,08,17,09,07,18.90
2008,08,17,09,08,18.90
2008,08,17,09,09,18.90
2008,08,17,09,10,18.90
2008,08,17,09,11,19.00
2008,08,17,09,12,19.10
2008,08,17,09,13,19.10
2008,08,17,09,14,19.10
2008,08,17,09,15,19.20
2008,08,17,09,16,19.20
2008,08,17,09,17,19.30
2008,08,17,09,18,19.20
2008,08,17,09,19,19.20
2008,08,17,09,20,19.10
2008,08,17,09,21,19.10
2008,08,17,09,22,19.00
2008,08,17,09,23,18.90
2008,08,17,09,24,18.90
2008,08,17,09,25,18.90
2008,08,17,09,26,19.00
2008,08,17,09,27,19.10
2008,08,17,09,28,19.20
2008,08,17,09,29,19.40
2008,08,17,09,30,19.50
2008,08,17,09,31,19.60
2008,08,17,09,32,19.80
2008,08,17,09,33,19.90
2008,08,17,09,34,20.20
2008,08,17,09,35,20.40
2008,08,17,09,36,20.60
2008,08,17,09,37,20.80
2008,08,17,09,38,21.00
2008,08,17,09,39,21.20
2008,08,17,09,40,21.40
2008,08,17,09,41,21.50
2008,08,17,09,42,21.70
2008,08,17,09,43,21.80
2008,08,17,09,44,21.90
2008,08,17,09,45,22.00
2008,08,17,09,46,22.00
2008,08,17,09,47,22.10
2008,08,17,09,48,22.10
2008,08,17,09,49,22.20
2008,08,17,09,50,22.20
2008,08,17,09,51,22.30
2008,08,17,09,52,22.40
2008,08,17,09,53,22.60
2008,08,17,09,54,22.70
2008,08,17,09,55,22.80
2008,08,17,09,56,22.90
2008,08,17,09,57,23.10
2008,08,17,09,58,23.20
2008,08,17,09,59,23.30
2008,08,17,10,00,23.30
2008,08,17,10,01,23.40
2008,08,17,10,02,23.40
2008,08,17,10,03,23.40
2008,08,17,10,04,23.40
2008,08,17,10,05,23.40
2008,08,17,10,06,23.50
2008,08,17,10,07,23.60
2008,08,17,10,08,23.70
2008,08,17,10,09,23.70
2008,08,17,10,10,23.70
2008,08,17,10,11,23.70
2008,08,17,10,12,23.70
2008,08,17,10,13,23.70
2008,08,17,10,14,23.80
2008,08,17,10,15,23.80
2008,08,17,10,16,23.90
2008,08,17,10,17,24.00
2008,08,17,10,18,24.10
2008,08,17,10,19,24.10
2008,08,17,10,20,24.10
2008,08,17,10,21,24.20
2008,08,17,10,22,24.40
2008,08,17,10,23,24.40
2008,08,17,10,24,24.40
2008,08,17,10,25,24.40
2008,08,17,10,26,24.40
2008,08,17,10,27,24.40
2008,08,17,10,28,24.40
2008,08,17,10,29,24.40
2008,08,17,10,30,24.40
2008,08,17,10,31,24.50
2008,08,17,10,32,24.50
2008,08,17,10,33,24.60
2008,08,17,10,34,24.70
2008,08,17,10,35,24.80
2008,08,17,10,36,24.80
2008,08,17,10,37,24.80
2008,08,17,10,38,24.90
2008,08,17,10,39,24.90
2008,08,17,10,40,25.00
2008,08,17,10,41,24.90
2008,08,17,10,42,24.80
2008,08,17,10,43,24.70
2008,08,17,10,44,24.60
2008,08,17,10,45,24.60
2008,08,17,10,46,24.70
2008,08,17,10,47,24.80
2008,08,17,10,48,24.90
2008,08,17,10,49,24.90
2008,08,17,10,50,24.90
2008,08,17,10,51,24.80
2008,08,17,10,52,24.70
2008,08,17,10,53,24.50
2008,08,17,10,54,24.20
2008,08,17,10,55,24.00
2008,08,17,10,56,23.70
2008,08,17,10,57,23.30
2008,08,17,10,58,23.10
2008,08,17,10,59,23.00
2008,08,17,11,00,22.90
2008,08,17,11,01,22.90
2008,08,17,11,02,22.80
2008,08,17,11,03,22.80
2008,08,17,11,04,22.70
2008,08,17,11,05,22.50
2008,08,17,11,06,22.30
2008,08,17,11,07,22.20
2008,08,17,11,08,21.90
2008,08,17,11,09,21.70
2008,08,17,11,10,21.60
2008,08,17,11,11,21.60
2008,08,17,11,12,21.60
2008,08,17,11,13,21.70
2008,08,17,11,14,21.90
2008,08,17,11,15,22.00
2008,08,17,11,16,22.10
2008,08,17,11,17,22.20
2008,08,17,11,18,22.30
2008,08,17,11,19,22.40
2008,08,17,11,20,22.50
2008,08,17,11,21,22.50
2008,08,17,11,22,22.60
2008,08,17,11,23,22.70
2008,08,17,11,24,22.80
2008,08,17,11,25,22.80
2008,08,17,11,26,22.80
2008,08,17,11,27,22.50
2008,08,17,11,28,22.30
2008,08,17,11,29,22.10
2008,08,17,11,30,21.90
2008,08,17,11,31,21.80
2008,08,17,11,32,21.70
2008,08,17,11,33,21.60
2008,08,17,11,34,21.60
2008,08,17,11,35,21.60
2008,08,17,11,36,21.60
2008,08,17,11,37,21.80
2008,08,17,11,38,21.90
2008,08,17,11,39,21.90
2008,08,17,11,40,21.90
2008,08,17,11,41,21.90
2008,08,17,11,42,21.90
2008,08,17,11,43,21.90
2008,08,17,11,44,21.90
2008,08,17,11,45,21.90
2008,08,17,11,46,21.80
2008,08,17,11,47,21.70
2008,08,17,11,48,21.60
2008,08,17,11,49,21.60
2008,08,17,11,50,21.40
2008,08,17,11,51,21.40
2008,08,17,11,52,21.60
2008,08,17,11,53,21.60
2008,08,17,11,54,21.60
2008,08,17,11,55,21.70
2008,08,17,11,56,21.70
2008,08,17,11,57,21.80
2008,08,17,11,58,21.90
2008,08,17,11,59,22.00
2008,08,17,12,00,22.10
2008,08,17,12,01,22.10
2008,08,17,12,02,22.10
2008,08,17,12,03,22.10
2008,08,17,12,04,22.20
2008,08,17,12,05,22.20
2008,08,17,12,06,22.30
2008,08,17,12,07,22.40
2008,08,17,12,08,22.60
2008,08,17,12,09,22.80
2008,08,17,12,10,23.00
2008,08,17,12,11,23.10
2008,08,17,12,12,23.30
2008,08,17,12,13,23.40
2008,08,17,12,14,23.40
2008,08,17,12,15,23.50
2008,08,17,12,16,23.60
2008,08,17,12,17,23.70
2008,08,17,12,18,23.80
2008,08,17,12,19,23.90
2008,08,17,12,20,23.90
2008,08,17,12,21,24.00
2008,08,17,12,22,24.10
2008,08,17,12,23,24.20
2008,08,17,12,24,24.20
2008,08,17,12,25,24.30
2008,08,17,12,26,24.50
2008,08,17,12,27,24.50
2008,08,17,12,28,24.50
2008,08,17,12,29,24.60
2008,08,17,12,30,24.70
2008,08,17,12,31,24.80
2008,08,17,12,32,24.90
2008,08,17,12,33,25.00
2008,08,17,12,34,25.00
2008,08,17,12,35,25.00
2008,08,17,12,36,25.00
2008,08,17,12,37,24.90
2008,08,17,12,38,24.80
2008,08,17,12,39,24.90
2008,08,17,12,40,24.90
2008,08,17,12,41,24.90
2008,08,17,12,42,24.80
2008,08,17,12,43,24.70
2008,08,17,12,44,24.60
2008,08,17,12,45,24.60
2008,08,17,12,46,24.60
2008,08,17,12,47,24.70
2008,08,17,12,48,24.70
2008,08,17,12,49,24.80
2008,08,17,12,50,25.00
2008,08,17,12,51,25.10
2008,08,17,12,52,25.20
2008,08,17,12,53,25.30
2008,08,17,12,54,25.40
2008,08,17,12,55,25.40
2008,08,17,12,56,25.50
2008,08,17,12,57,25.60
2008,08,17,12,58,25.80
2008,08,17,12,59,25.90
2008,08,17,13,00,26.10
2008,08,17,13,01,26.20
2008,08,17,13,02,26.00
2008,08,17,13,03,25.90
2008,08,17,13,04,25.60
2008,08,17,13,05,25.30
2008,08,17,13,06,25.30
2008,08,17,13,07,25.40
2008,08,17,13,08,25.50
2008,08,17,13,09,25.60
2008,08,17,13,10,25.70
2008,08,17,13,11,25.90
2008,08,17,13,12,26.00
2008,08,17,13,13,26.20
2008,08,17,13,14,26.20
2008,08,17,13,15,26.20
2008,08,17,13,16,26.30
2008,08,17,13,17,26.30
2008,08,17,13,18,26.40
2008,08,17,13,19,26.40
2008,08,17,13,20,26.40
2008,08,17,13,21,26.40
2008,08,17,13,22,26.40
2008,08,17,13,23,26.40
2008,08,17,13,24,26.20
2008,08,17,13,25,26.20
2008,08,17,13,26,26.10
2008,08,17,13,27,26.10
2008,08,17,13,28,26.10
2008,08,17,13,29,26.10
2008,08,17,13,30,26.10
2008,08,17,13,31,26.10
2008,08,17,13,32,26.10
2008,08,17,13,33,26.10
2008,08,17,13,34,26.10
2008,08,17,13,35,26.10
2008,08,17,13,36,26.00
2008,08,17,13,37,25.90
2008,08,17,13,38,25.70
2008,08,17,13,39,25.60
2008,08,17,13,40,25.50
2008,08,17,13,41,25.40
2008,08,17,13,42,25.40
2008,08,17,13,43,25.40
2008,08,17,13,44,25.20
2008,08,17,13,45,25.10
2008,08,17,13,46,25.00
2008,08,17,13,47,24.90
2008,08,17,13,48,24.80
2008,08,17,13,49,24.80
2008,08,17,13,50,24.80
2008,08,17,13,51,24.80
2008,08,17,13,52,24.90
2008,08,17,13,53,24.80
2008,08,17,13,54,24.80
2008,08,17,13,55,24.70
2008,08,17,13,56,24.50
2008,08,17,13,57,24.50
2008,08,17,13,58,24.40
2008,08,17,13,59,24.40
2008,08,17,14,00,24.40
2008,08,17,14,01,24.40
2008,08,17,14,02,24.40
2008,08,17,14,03,24.30
2008,08,17,14,04,24.20
2008,08,17,14,05,24.20
2008,08,17,14,06,24.10
2008,08,17,14,07,23.90
2008,08,17,14,08,23.90
2008,08,17,14,09,23.80
2008,08,17,14,10,23.90
2008,08,17,14,11,24.00
2008,08,17,14,12,24.10
2008,08,17,14,13,24.20
2008,08,17,14,14,24.30
2008,08,17,14,15,24.40
2008,08,17,14,16,24.50
2008,08,17,14,17,24.60
2008,08,17,14,18,24.70
2008,08,17,14,19,24.90
2008,08,17,14,20,25.10
2008,08,17,14,21,25.20
2008,08,17,14,22,25.40
2008,08,17,14,23,25.50
2008,08,17,14,24,25.60
2008,08,17,14,25,25.70
2008,08,17,14,26,25.70
2008,08,17,14,27,25.70
2008,08,17,14,28,25.70
2008,08,17,14,29,25.70
2008,08,17,14,30,25.80
2008,08,17,14,31,25.80
2008,08,17,14,32,25.70
2008,08,17,14,33,25.70
2008,08,17,14,34,25.70
2008,08,17,14,35,25.70
2008,08,17,14,36,25.70
2008,08,17,14,37,25.80
2008,08,17,14,38,25.80
2008,08,17,14,39,25.90
2008,08,17,14,40,25.90
2008,08,17,14,41,25.90
2008,08,17,14,42,25.90
2008,08,17,14,43,25.90
2008,08,17,14,44,25.90
2008,08,17,14,45,25.70
2008,08,17,14,46,25.60
2008,08,17,14,47,25.50
2008,08,17,14,48,25.50
2008,08,17,14,49,25.60
2008,08,17,14,50,25.60
2008,08,17,14,51,25.40
2008,08,17,14,52,25.40
2008,08,17,14,53,25.30
2008,08,17,14,54,25.40
2008,08,17,14,55,25.40
2008,08,17,14,56,25.40
2008,08,17,14,57,25.40
2008,08,17,14,58,25.40
2008,08,17,14,59,25.30
2008,08,17,15,00,25.30
2008,08,17,15,01,25.20
2008,08,17,15,02,25.10
2008,08,17,15,03,25.10
2008,08,17,15,04,25.20
2008,08,17,15,05,25.40
2008,08,17,15,06,25.60
2008,08,17,15,07,25.80
2008,08,17,15,08,26.00
2008,08,17,15,09,26.10
2008,08,17,15,10,26.20
2008,08,17,15,11,26.20
2008,08,17,15,12,26.10
2008,08,17,15,13,25.90
2008,08,17,15,14,25.40
2008,08,17,15,15,24.90
2008,08,17,15,16,24.50
2008,08,17,15,17,24.40
2008,08,17,15,18,24.30
2008,08,17,15,19,24.30
2008,08,17,15,20,24.30
2008,08,17,15,21,24.30
2008,08,17,15,22,24.30
2008,08,17,15,23,24.40
2008,08,17,15,24,24.50
2008,08,17,15,25,24.40
2008,08,17,15,26,24.40
2008,08,17,15,27,24.40
2008,08,17,15,28,24.30
2008,08,17,15,29,24.30
2008,08,17,15,30,24.30
2008,08,17,15,31,24.20
2008,08,17,15,32,24.10
2008,08,17,15,33,24.10
2008,08,17,15,34,24.20
2008,08,17,15,35,24.10
2008,08,17,15,36,23.90
2008,08,17,15,37,23.70
2008,08,17,15,38,23.70
2008,08,17,15,39,23.70
2008,08,17,15,40,23.70
2008,08,17,15,41,23.60
2008,08,17,15,42,23.60
2008,08,17,15,43,23.40
2008,08,17,15,44,23.40
2008,08,17,15,45,23.40
2008,08,17,15,46,23.40
2008,08,17,15,47,23.60
2008,08,17,15,48,23.60
2008,08,17,15,49,23.70
2008,08,17,15,50,23.70
2008,08,17,15,51,23.70
2008,08,17,15,52,23.70
2008,08,17,15,53,23.70
2008,08,17,15,54,23.70
2008,08,17,15,55,23.70
2008,08,17,15,56,23.70
2008,08,17,15,57,23.70
2008,08,17,15,58,23.80
2008,08,17,15,59,23.90
2008,08,17,16,00,23.90
2008,08,17,16,01,24.00
2008,08,17,16,02,24.10
2008,08,17,16,03,24.10
2008,08,17,16,04,24.10
2008,08,17,16,05,24.10
2008,08,17,16,06,24.20
2008,08,17,16,07,24.30
2008,08,17,16,08,24.30
2008,08,17,16,09,24.40
2008,08,17,16,10,24.50
2008,08,17,16,11,24.50
2008,08,17,16,12,24.60
2008,08,17,16,13,24.60
2008,08,17,16,14,24.80
2008,08,17,16,15,24.90
2008,08,17,16,16,24.90
2008,08,17,16,17,24.90
2008,08,17,16,18,25.00
2008,08,17,16,19,25.00
2008,08,17,16,20,25.10
2008,08,17,16,21,25.10
2008,08,17,16,22,25.10
2008,08,17,16,23,25.10
2008,08,17,16,24,25.00
2008,08,17,16,25,24.90
2008,08,17,16,26,24.90
2008,08,17,16,27,24.80
2008,08,17,16,28,24.80
2008,08,17,16,29,24.80
2008,08,17,16,30,24.70
2008,08,17,16,31,24.70
2008,08,17,16,32,24.80
2008,08,17,16,33,24.80
2008,08,17,16,34,24.70
2008,08,17,16,35,24.70
2008,08,17,16,36,24.70
2008,08,17,16,37,24.50
2008,08,17,16,38,24.40
2008,08,17,16,39,24.40
2008,08,17,16,40,24.10
2008,08,17,16,41,24.00
2008,08,17,16,42,23.90
2008,08,17,16,43,23.80
2008,08,17,16,44,23.80
2008,08,17,16,45,23.80
2008,08,17,16,46,23.80
2008,08,17,16,47,23.80
2008,08,17,16,48,23.80
2008,08,17,16,49,23.80
2008,08,17,16,50,23.80
2008,08,17,16,51,23.80
2008,08,17,16,52,23.80
2008,08,17,16,53,23.70
2008,08,17,16,54,23.70
2008,08,17,16,55,23.70
2008,08,17,16,56,23.60
2008,08,17,16,57,23.60
2008,08,17,16,58,23.60
2008,08,17,16,59,23.60
2008,08,17,17,00,23.60
2008,08,17,17,01,23.60
2008,08,17,17,02,23.60
2008,08,17,17,03,23.70
2008,08,17,17,04,23.70
2008,08,17,17,05,23.70
2008,08,17,17,06,23.80
2008,08,17,17,07,23.80
2008,08,17,17,08,23.80
2008,08,17,17,09,23.80
2008,08,17,17,10,23.80
2008,08,17,17,11,23.80
2008,08,17,17,12,23.80
2008,08,17,17,13,23.70
2008,08,17,17,14,23.70
2008,08,17,17,15,23.70
2008,08,17,17,16,23.70
2008,08,17,17,17,23.70
2008,08,17,17,18,23.70
2008,08,17,17,19,23.70